WetterOnline ( https://www.wetteronline.de )

Wetter aktuell Waiblingen

Aktuelles Wetter: Schnarrenberg/Stuttgart (315m)

6-stündlich | Neueste Meldungen
Ortszeit Temperatur Wetter
Fr, 09.12. 13:00 -0.2° C bedeckt
Fr, 09.12. 7:00 -3.8° C bedeckt
Fr, 09.12. 1:00 -1.5° C wolkenlos
Do, 08.12. 19:00 2.2° C bedeckt
Do, 08.12. 13:00 2.7° C bedeckt
Do, 08.12. 7:00 -1.3° C wolkig
Do, 08.12. 1:00 1.3° C leicht bewölkt
Mi, 07.12. 19:00 2.8° C bedeckt
Ortszeit Temperatur Wetter
Fr, 09.12. 17:30 0.4° C bedeckt
Fr, 09.12. 17:20 0.4° C Schneegriesel
Fr, 09.12. 17:10 0.4° C Schneegriesel
Fr, 09.12. 17:00 0.3° C Schneegriesel
Fr, 09.12. 16:50 0.3° C Schneegriesel
Fr, 09.12. 16:40 0.2° C leichter Schneefall
Fr, 09.12. 16:30 0.2° C leichter Schneefall
Fr, 09.12. 16:00 0.4° C leichter Schneefall
Fr, 09.12. 15:30 0.5° C leichter Schneefall
Fr, 09.12. 15:00 0.5° C leichter Schneefall
Fr, 09.12. 14:30 0.6° C bedeckt
Ortszeit Relative Feuchte Sichtweite
Fr, 09.12. 13:00 83% 20 km
Fr, 09.12. 7:00 93% 16 km
Fr, 09.12. 1:00 89% 27 km
Do, 08.12. 19:00 71% 45 km
Do, 08.12. 13:00 72% 35 km
Do, 08.12. 7:00 93% 20 km
Do, 08.12. 1:00 83% 35 km
Mi, 07.12. 19:00 80% 30 km
Ortszeit Relative Feuchte Sichtweite
Fr, 09.12. 17:30 94% 6 km
Fr, 09.12. 17:20 94% -
Fr, 09.12. 17:10 94% -
Fr, 09.12. 17:00 94% 3.5 km
Fr, 09.12. 16:50 94% -
Fr, 09.12. 16:40 94% -
Fr, 09.12. 16:30 94% 3.3 km
Fr, 09.12. 16:00 91% 4.0 km
Fr, 09.12. 15:30 90% 6 km
Fr, 09.12. 15:00 88% 2.5 km
Fr, 09.12. 14:30 84% 18 km
Ortszeit Niederschlagsmenge Niederschlagsart
Fr, 09.12. 13:00 0.0 l/m2 in 6 Std. -
Fr, 09.12. 7:00 0.0 l/m2 in 12 Std. -
Fr, 09.12. 1:00 0.0 l/m2 in 6 Std. -
Do, 08.12. 19:00 0.1 l/m2 in 12 Std. Regen
Do, 08.12. 13:00 0.0 l/m2 in 6 Std. -
Do, 08.12. 7:00 0.0 l/m2 in 12 Std. -
Do, 08.12. 1:00 0.0 l/m2 in 6 Std. -
Mi, 07.12. 19:00 0.1 l/m2 in 12 Std. -
Ortszeit Niederschlagsmenge Niederschlagsart
Fr, 09.12. 17:30 <0.05 l/m2 in 1 Std. Schnee
Fr, 09.12. 17:20 keine Meldung -
Fr, 09.12. 17:10 keine Meldung -
Fr, 09.12. 17:00 0.1 l/m2 in 1 Std. Schnee
Fr, 09.12. 16:50 keine Meldung -
Fr, 09.12. 16:40 keine Meldung -
Fr, 09.12. 16:30 0.1 l/m2 in 1 Std. -
Fr, 09.12. 16:00 <0.05 l/m2 in 1 Std. Schnee, Sprühregen
Fr, 09.12. 15:30 <0.05 l/m2 in 1 Std. -
Fr, 09.12. 15:00 <0.05 l/m2 in 1 Std. Schnee, Sprühregen
Fr, 09.12. 14:30 0.0 l/m2 in 1 Std. -
Ortszeit Stärke Spitze Richtung
km/h Bft. km/h Grad Sektor
Fr, 09.12. 13:00 4 1 7 10° N
Fr, 09.12. 7:00 4 1 7 330° NW
Fr, 09.12. 1:00 4 1 7 110° O
Do, 08.12. 19:00 4 1 11 250° W
Do, 08.12. 13:00 4 1 18 140° SO
Do, 08.12. 7:00 9 2 13 160° S
Do, 08.12. 1:00 7 2 17 250° W
Mi, 07.12. 19:00 7 2 22 280° W
Ortszeit Stärke Spitze Richtung
km/h Bft. km/h Grad Sektor
Fr, 09.12. 17:30 2 1 6 340° N
Fr, 09.12. 17:20 2 1 - 340° N
Fr, 09.12. 17:10 4 1 - 360° N
Fr, 09.12. 17:00 4 1 7 350° N
Fr, 09.12. 16:50 4 1 - 350° N
Fr, 09.12. 16:40 4 1 - 10° N
Fr, 09.12. 16:30 6 1 9 30° NO
Fr, 09.12. 16:00 4 1 11 40° NO
Fr, 09.12. 15:30 4 1 11 20° N
Fr, 09.12. 15:00 6 1 9 340° N
Fr, 09.12. 14:30 7 2 11 340° N
Ortszeit Untergrenze Bedeckung Gattung
total tief tief mittel hoch
Fr, 09.12. 13:00 1110 m 8/8 8/8 - - -
Fr, 09.12. 7:00 6300 m 8/8 8/8 - - -
Fr, 09.12. 1:00 - 0/8 0/8 - - -
Do, 08.12. 19:00 990 m 8/8 8/8 - - -
Do, 08.12. 13:00 960 m 8/8 8/8 - - -
Do, 08.12. 7:00 1800 m 6/8 4/8 - - -
Do, 08.12. 1:00 960 m 4/8 4/8 - - -
Mi, 07.12. 19:00 1500 m 8/8 8/8 - - -
Ortszeit Bedeckungsgrad in Achtel und Wolkenuntergrenze
Fr, 09.12. 17:30 8(360m)
Fr, 09.12. 17:20 8(360m)
Fr, 09.12. 17:10 7
Fr, 09.12. 17:00 1(150m) 7(570m) 8(1260m)
Fr, 09.12. 16:50 1(150m) 7(570m) 8(1260m)
Fr, 09.12. 16:40 7
Fr, 09.12. 16:30 4(180m) 6(330m) 8(540m)
Fr, 09.12. 16:00 7(210m) 7(420m)
Fr, 09.12. 15:30 1(210m) 6(1320m)
Fr, 09.12. 15:00 1(240m) 6(720m) 7(840m)
Fr, 09.12. 14:30 4(870m) 8(1110m)
Ortszeit Luftdruck NN (hPa) Tendenz (hPa in 3 Std.)
Fr, 09.12. 13:00 1004 - 1,2
Fr, 09.12. 7:00 1006 - 1,6
Fr, 09.12. 1:00 1009 - 0,8
Do, 08.12. 19:00 1010 - 0,4
Do, 08.12. 13:00 1011 - 1,5
Do, 08.12. 7:00 1013 - 1,0
Do, 08.12. 1:00 1015 - 0,9
Mi, 07.12. 19:00 1016 - 0,8
Ortszeit Luftdruck NN (hPa) Tendenz (hPa in 3 Std.)
Fr, 09.12. 17:30 1004 + 0,7
Fr, 09.12. 17:20 1004 keine Meldung
Fr, 09.12. 17:10 1005 keine Meldung
Fr, 09.12. 17:00 1004 + 0,9
Fr, 09.12. 16:50 1004 keine Meldung
Fr, 09.12. 16:40 1004 keine Meldung
Fr, 09.12. 16:30 1004 + 0,6
Fr, 09.12. 16:00 1004 + 0,3
Fr, 09.12. 15:30 1004 - 0,3
Fr, 09.12. 15:00 1004 - 0,5
Fr, 09.12. 14:30 1004 - 0,7
Ortszeit Schneehöhe (cm)
Fr, 09.12. 13:00 0
Fr, 09.12. 7:00 0
Fr, 09.12. 1:00 0
Do, 08.12. 19:00 0
Do, 08.12. 13:00 0
Do, 08.12. 7:00 0
Do, 08.12. 1:00 0
Mi, 07.12. 19:00 0
Ortszeit Schneehöhe (cm)
Fr, 09.12. 17:30 0
Fr, 09.12. 17:20 0
Fr, 09.12. 17:10 0
Fr, 09.12. 17:00 0
Fr, 09.12. 16:50 0
Fr, 09.12. 16:40 0
Fr, 09.12. 16:30 0
Fr, 09.12. 16:00 0
Fr, 09.12. 15:30 0
Fr, 09.12. 15:00 0
Fr, 09.12. 14:30 0
Link zu dieser Seite / Seite empfehlen

Das Wetter in ...